Time,TemperatureF,DewpointF,PressureIn,WindDirection,WindDirectionDegrees,WindSpeedMPH,WindSpeedGustMPH,Humidity,HourlyPrecipIn,Conditions,Clouds,dailyrainin,SoftwareType,DateUTC
2013-08-21 00:14:00,75.0,73.0,30.07,NE,42,0.0,2.0,93,0.00,,,0.30,,2013-08-21 04:14:00,
2013-08-21 00:24:00,75.0,73.0,30.07,NE,55,0.0,3.0,93,0.00,,,0.30,,2013-08-21 04:24:00,
2013-08-21 00:54:00,74.0,72.0,30.07,NE,51,0.0,1.0,93,0.00,,,0.30,,2013-08-21 04:54:00,
2013-08-21 01:23:00,74.0,72.0,30.07,ENE,59,0.0,1.0,93,0.00,,,0.30,,2013-08-21 05:23:00,
2013-08-21 01:52:00,74.0,72.0,30.07,ESE,102,0.0,1.0,93,0.00,,,0.30,,2013-08-21 05:52:00,
2013-08-21 02:12:00,74.0,72.0,30.06,NE,55,0.0,3.0,93,0.00,,,0.30,,2013-08-21 06:12:00,
2013-08-21 02:22:00,74.0,72.0,30.06,ESE,103,0.0,1.0,93,0.00,,,0.30,,2013-08-21 06:22:00,
2013-08-21 02:52:00,74.0,72.0,30.06,ESE,111,0.0,3.0,93,0.00,,,0.30,,2013-08-21 06:52:00,
2013-08-21 03:22:00,74.0,72.0,30.05,ENE,63,0.0,1.0,93,0.00,,,0.30,,2013-08-21 07:22:00,
2013-08-21 03:53:00,74.0,72.0,30.04,ENE,63,0.0,1.0,93,0.00,,,0.30,,2013-08-21 07:53:00,
2013-08-21 04:22:00,74.0,72.0,30.04,ENE,63,0.0,0.0,93,0.00,,,0.30,,2013-08-21 08:22:00,
2013-08-21 04:53:00,74.0,72.0,30.04,ESE,108,0.0,1.0,93,0.00,,,0.30,,2013-08-21 08:53:00,
2013-08-21 05:22:00,75.0,73.0,30.03,NE,48,0.0,2.0,93,0.00,,,0.30,,2013-08-21 09:22:00,
2013-08-21 05:54:00,75.0,73.0,30.03,East,99,0.0,1.0,94,0.01,,,0.31,,2013-08-21 09:54:00,
2013-08-21 06:23:00,75.0,73.0,30.04,East,96,0.0,1.0,94,0.01,,,0.31,,2013-08-21 10:23:00,
2013-08-21 06:53:00,75.0,73.0,30.05,ENE,59,0.0,3.0,94,0.00,,,0.31,,2013-08-21 10:53:00,
2013-08-21 07:22:00,75.0,73.0,30.05,ESE,121,0.0,2.0,94,0.00,,,0.31,,2013-08-21 11:22:00,
2013-08-21 07:53:00,75.0,73.0,30.06,ESE,121,0.0,1.0,94,0.00,,,0.31,,2013-08-21 11:53:00,
2013-08-21 08:22:00,76.0,74.0,30.07,ESE,117,0.0,1.0,94,0.00,,,0.31,,2013-08-21 12:22:00,
2013-08-21 08:52:00,77.0,75.0,30.07,East,98,1.0,4.0,94,0.00,,,0.31,,2013-08-21 12:52:00,
2013-08-21 09:21:00,77.0,75.0,30.07,South,182,0.0,2.0,94,0.00,,,0.31,,2013-08-21 13:21:00,
2013-08-21 09:52:00,82.0,78.0,30.08,ENE,64,0.0,3.0,89,0.00,,,0.31,,2013-08-21 13:52:00,
2013-08-21 10:21:00,84.0,79.0,30.09,ENE,69,0.0,5.0,85,0.00,,,0.31,,2013-08-21 14:21:00,
2013-08-21 10:52:00,86.0,79.0,30.09,East,87,1.0,5.0,81,0.00,,,0.31,,2013-08-21 14:52:00,
2013-08-21 11:22:00,87.0,78.0,30.09,SE,145,3.0,5.0,75,0.00,,,0.31,,2013-08-21 15:22:00,
2013-08-21 11:55:00,90.0,79.0,30.09,SSE,152,0.0,6.0,70,0.00,,,0.31,,2013-08-21 15:55:00,
2013-08-21 12:24:00,90.0,79.0,30.09,SE,144,0.0,5.0,70,0.00,,,0.31,,2013-08-21 16:24:00,
2013-08-21 12:53:00,91.0,78.0,30.08,South,173,0.0,6.0,66,0.00,,,0.31,,2013-08-21 16:53:00,
2013-08-21 13:23:00,93.0,79.0,30.06,East,98,0.0,3.0,64,0.00,,,0.31,,2013-08-21 17:23:00,
2013-08-21 13:53:00,94.0,77.0,30.05,SSE,160,2.0,4.0,59,0.00,,,0.31,,2013-08-21 17:53:00,
2013-08-21 14:12:00,94.0,80.0,30.04,ESE,105,0.0,2.0,64,0.00,,,0.31,,2013-08-21 18:12:00,
2013-08-21 14:22:00,95.0,77.0,30.04,East,80,1.0,4.0,57,0.00,,,0.31,,2013-08-21 18:22:00,
2013-08-21 14:52:00,94.0,78.0,30.03,ESE,121,0.0,3.0,61,0.00,,,0.31,,2013-08-21 18:52:00,
2013-08-21 15:22:00,92.0,77.0,30.03,West,268,0.0,4.0,62,0.00,,,0.31,,2013-08-21 19:22:00,
2013-08-21 15:52:00,88.0,79.0,30.01,West,280,1.0,7.0,76,0.00,,,0.30,,2013-08-21 19:52:00,
2013-08-21 16:22:00,91.0,80.0,30.00,NNW,338,1.0,6.0,71,0.00,,,0.30,,2013-08-21 20:22:00,
2013-08-21 16:52:00,88.0,79.0,29.98,North,349,3.0,9.0,75,0.00,,,0.30,,2013-08-21 20:52:00,
2013-08-21 18:24:00,73.0,71.0,30.06,NE,50,0.0,3.0,93,0.67,,,1.18,,2013-08-21 22:24:00,
2013-08-21 18:53:00,73.0,71.0,30.07,ENE,64,0.0,1.0,93,0.03,,,1.18,,2013-08-21 22:53:00,
2013-08-21 19:22:00,73.0,71.0,30.05,ENE,77,0.0,2.0,93,0.00,,,1.18,,2013-08-21 23:22:00,
2013-08-21 19:53:00,73.0,71.0,30.05,North,5,0.0,2.0,94,0.00,,,0.89,,2013-08-21 23:53:00,
2013-08-21 20:22:00,73.0,71.0,30.04,ESE,107,0.0,3.0,94,0.02,,,0.91,,2013-08-22 00:22:00,
2013-08-21 20:42:00,73.0,71.0,30.04,ESE,104,0.0,1.0,94,0.04,,,0.93,,2013-08-22 00:42:00,
2013-08-21 20:52:00,74.0,72.0,30.05,ESE,103,0.0,1.0,94,0.05,,,0.94,,2013-08-22 00:52:00,
2013-08-21 21:22:00,74.0,72.0,30.05,ESE,102,0.0,0.0,94,0.05,,,0.96,,2013-08-22 01:22:00,
2013-08-21 21:52:00,74.0,72.0,30.05,ESE,102,0.0,0.0,94,0.03,,,0.97,,2013-08-22 01:52:00,
2013-08-21 22:22:00,75.0,73.0,30.05,SE,133,0.0,3.0,94,0.01,,,0.97,,2013-08-22 02:22:00,
2013-08-21 23:22:00,76.0,74.0,30.06,ESE,119,0.0,1.0,95,0.01,,,0.98,,2013-08-22 03:22:00,
2013-08-21 23:54:00,76.0,74.0,30.06,ESE,111,0.0,2.0,94,0.01,,,0.99,,2013-08-22 03:54:00,